Time,TemperatureF,DewpointF,PressureIn,WindDirection,WindDirectionDegrees,WindSpeedMPH,WindSpeedGustMPH,Humidity,HourlyPrecipIn,Conditions,Clouds,dailyrainin,SoftwareType,DateUTC
2013-11-30 00:00:00,31.1,19.3,30.70,SSW,203,0.0,1.3,61,0.00,,,0.00,WUHU216HW,2013-11-30 05:00:00,
2013-11-30 00:01:00,31.1,19.3,30.70,SSW,203,0.0,1.3,61,0.00,,,0.00,WUHU216HW,2013-11-30 05:01:00,
2013-11-30 00:02:00,31.1,19.3,30.70,SSW,203,0.0,1.3,61,0.00,,,0.00,WUHU216HW,2013-11-30 05:02:00,
2013-11-30 00:04:00,31.0,19.1,30.70,SSW,203,0.2,1.3,61,0.00,,,0.00,WUHU216HW,2013-11-30 05:04:00,
2013-11-30 00:09:00,31.0,19.4,30.70,WSW,248,0.0,1.1,62,0.00,,,0.00,WUHU216HW,2013-11-30 05:09:00,
2013-11-30 00:14:00,30.8,19.3,30.69,SW,225,0.4,1.1,62,0.00,,,0.00,WUHU216HW,2013-11-30 05:14:00,
2013-11-30 00:19:00,30.8,19.3,30.70,West,270,0.9,0.9,62,0.00,,,0.00,WUHU216HW,2013-11-30 05:19:00,
2013-11-30 00:24:00,30.8,19.3,30.70,West,270,0.9,0.9,62,0.00,,,0.00,WUHU216HW,2013-11-30 05:24:00,
2013-11-30 00:46:00,30.2,18.7,30.69,WSW,248,0.0,0.0,62,0.00,,,0.00,WUHU216HW,2013-11-30 05:46:00,
2013-11-30 00:51:00,30.2,18.7,30.69,SSE,158,0.0,0.0,62,0.00,,,0.00,WUHU216HW,2013-11-30 05:51:00,
2013-11-30 00:56:00,30.4,19.3,30.69,SW,225,0.0,1.8,63,0.00,,,0.00,WUHU216HW,2013-11-30 05:56:00,
2013-11-30 01:01:00,30.4,19.3,30.70,WSW,248,0.0,1.8,63,0.00,,,0.00,WUHU216HW,2013-11-30 06:01:00,
2013-11-30 01:06:00,30.4,19.3,30.69,SW,225,0.9,1.1,63,0.00,,,0.00,WUHU216HW,2013-11-30 06:06:00,
2013-11-30 01:12:00,30.2,19.1,30.69,SW,225,0.2,0.9,63,0.00,,,0.00,WUHU216HW,2013-11-30 06:12:00,
2013-11-30 01:17:00,30.1,18.9,30.69,WSW,248,0.7,1.6,63,0.00,,,0.00,WUHU216HW,2013-11-30 06:17:00,
2013-11-30 01:22:00,30.2,19.1,30.69,SW,225,0.4,1.6,63,0.00,,,0.00,WUHU216HW,2013-11-30 06:22:00,
2013-11-30 01:27:00,30.2,19.1,30.69,SW,225,0.0,0.7,63,0.00,,,0.00,WUHU216HW,2013-11-30 06:27:00,
2013-11-30 01:32:00,30.2,19.1,30.69,SW,225,0.0,0.0,63,0.00,,,0.00,WUHU216HW,2013-11-30 06:32:00,
2013-11-30 01:52:00,30.4,19.6,30.69,WSW,248,0.9,0.9,64,0.00,,,0.00,WUHU216HW,2013-11-30 06:52:00,
2013-11-30 01:57:00,30.4,19.3,30.70,SW,225,0.7,1.1,63,0.00,,,0.00,WUHU216HW,2013-11-30 06:57:00,
2013-11-30 02:02:00,30.4,19.3,30.69,South,180,0.7,1.1,63,0.00,,,0.00,WUHU216HW,2013-11-30 07:02:00,
2013-11-30 02:08:00,30.2,19.1,30.70,SW,225,1.3,1.3,63,0.00,,,0.00,WUHU216HW,2013-11-30 07:08:00,
2013-11-30 02:13:00,30.2,19.4,30.70,SW,225,0.9,1.3,64,0.00,,,0.00,WUHU216HW,2013-11-30 07:13:00,
2013-11-30 02:18:00,30.2,19.4,30.70,SW,225,2.0,2.0,64,0.00,,,0.00,WUHU216HW,2013-11-30 07:18:00,
2013-11-30 02:43:00,30.1,19.3,30.69,WSW,248,1.3,1.3,64,0.00,,,0.00,WUHU216HW,2013-11-30 07:43:00,
2013-11-30 02:48:00,29.9,19.1,30.70,SW,225,0.2,1.3,64,0.00,,,0.00,WUHU216HW,2013-11-30 07:48:00,
2013-11-30 02:53:00,29.9,19.4,30.69,SSW,203,0.0,1.8,65,0.00,,,0.00,WUHU216HW,2013-11-30 07:53:00,
2013-11-30 02:58:00,29.9,19.8,30.69,SSW,203,1.6,1.8,66,0.00,,,0.00,WUHU216HW,2013-11-30 07:58:00,
2013-11-30 03:03:00,29.9,19.8,30.69,WSW,248,0.0,1.6,66,0.00,,,0.00,WUHU216HW,2013-11-30 08:03:00,
2013-11-30 03:09:00,29.9,19.4,30.70,WSW,248,0.0,1.3,65,0.00,,,0.00,WUHU216HW,2013-11-30 08:09:00,
2013-11-30 03:14:00,29.7,19.4,30.69,WSW,248,0.9,1.1,65,0.00,,,0.00,WUHU216HW,2013-11-30 08:14:00,
2013-11-30 03:19:00,29.5,19.2,30.69,West,270,0.0,1.1,65,0.00,,,0.00,WUHU216HW,2013-11-30 08:19:00,
2013-11-30 03:24:00,29.3,19.4,30.69,SW,225,0.9,1.1,66,0.00,,,0.00,WUHU216HW,2013-11-30 08:24:00,
2013-11-30 03:29:00,29.3,19.4,30.69,SE,135,1.1,1.1,66,0.00,,,0.00,WUHU216HW,2013-11-30 08:29:00,
2013-11-30 03:34:00,29.3,19.4,30.70,WSW,248,0.0,1.1,66,0.00,,,0.00,WUHU216HW,2013-11-30 08:34:00,
2013-11-30 03:39:00,29.3,19.0,30.69,SE,135,0.0,1.1,65,0.00,,,0.00,WUHU216HW,2013-11-30 08:39:00,
2013-11-30 03:44:00,29.2,18.8,30.69,WSW,248,0.0,1.1,65,0.00,,,0.00,WUHU216HW,2013-11-30 08:44:00,
2013-11-30 03:49:00,29.0,18.6,30.69,SW,225,0.0,0.4,65,0.00,,,0.00,WUHU216HW,2013-11-30 08:49:00,
2013-11-30 03:54:00,28.8,18.6,30.69,SW,225,0.0,0.4,65,0.00,,,0.00,WUHU216HW,2013-11-30 08:54:00,
2013-11-30 03:59:00,28.6,18.7,30.69,WSW,248,0.7,1.1,66,0.00,,,0.00,WUHU216HW,2013-11-30 08:59:00,
2013-11-30 04:05:00,28.6,18.7,30.69,SSW,203,0.0,1.1,66,0.00,,,0.00,WUHU216HW,2013-11-30 09:05:00,
2013-11-30 04:10:00,28.6,18.7,30.69,SSW,203,0.0,0.7,66,0.00,,,0.00,WUHU216HW,2013-11-30 09:10:00,
2013-11-30 04:15:00,28.6,18.7,30.69,SSW,203,0.0,0.0,66,0.00,,,0.00,WUHU216HW,2013-11-30 09:15:00,
2013-11-30 04:40:00,28.3,18.7,30.68,WSW,248,0.0,0.0,67,0.00,,,0.00,WUHU216HW,2013-11-30 09:40:00,
2013-11-30 04:45:00,28.3,19.1,30.68,WSW,248,0.9,1.1,68,0.00,,,0.00,WUHU216HW,2013-11-30 09:45:00,
2013-11-30 04:50:00,28.3,18.7,30.69,SW,225,0.4,1.1,67,0.00,,,0.00,WUHU216HW,2013-11-30 09:50:00,
2013-11-30 04:55:00,28.1,18.9,30.69,WSW,248,0.0,0.9,68,0.00,,,0.00,WUHU216HW,2013-11-30 09:55:00,
2013-11-30 05:00:00,28.1,18.9,30.69,WSW,248,0.7,1.3,68,0.00,,,0.00,WUHU216HW,2013-11-30 10:00:00,
2013-11-30 05:06:00,28.1,18.5,30.69,WSW,248,0.0,1.3,67,0.00,,,0.00,WUHU216HW,2013-11-30 10:06:00,
2013-11-30 05:11:00,28.1,18.9,30.69,WSW,248,0.0,0.7,68,0.00,,,0.00,WUHU216HW,2013-11-30 10:11:00,
2013-11-30 05:16:00,27.9,18.7,30.69,SSW,203,0.0,0.7,68,0.00,,,0.00,WUHU216HW,2013-11-30 10:16:00,
2013-11-30 05:21:00,27.7,18.5,30.69,SW,225,1.1,1.1,68,0.00,,,0.00,WUHU216HW,2013-11-30 10:21:00,
2013-11-30 05:26:00,27.7,18.5,30.69,SW,225,0.0,1.1,68,0.00,,,0.00,WUHU216HW,2013-11-30 10:26:00,
2013-11-30 05:31:00,27.7,18.5,30.69,SW,225,0.0,0.7,68,0.00,,,0.00,WUHU216HW,2013-11-30 10:31:00,
2013-11-30 05:36:00,27.7,18.5,30.69,WSW,248,0.4,1.1,68,0.00,,,0.00,WUHU216HW,2013-11-30 10:36:00,
2013-11-30 05:41:00,27.7,18.9,30.69,WSW,248,0.0,1.1,69,0.00,,,0.00,WUHU216HW,2013-11-30 10:41:00,
2013-11-30 05:46:00,27.5,18.7,30.69,WSW,248,0.0,0.4,69,0.00,,,0.00,WUHU216HW,2013-11-30 10:46:00,
2013-11-30 05:51:00,27.4,18.2,30.69,WSW,248,0.2,1.1,68,0.00,,,0.00,WUHU216HW,2013-11-30 10:51:00,
2013-11-30 05:56:00,27.4,18.5,30.69,SW,225,0.0,0.4,69,0.00,,,0.00,WUHU216HW,2013-11-30 10:56:00,
2013-11-30 06:01:00,27.2,18.4,30.69,SW,225,0.0,1.1,69,0.00,,,0.00,WUHU216HW,2013-11-30 11:01:00,
2013-11-30 06:07:00,27.2,18.4,30.69,NE,45,0.0,1.1,69,0.00,,,0.00,WUHU216HW,2013-11-30 11:07:00,
2013-11-30 06:12:00,27.2,18.4,30.69,NE,45,0.0,0.0,69,0.00,,,0.00,WUHU216HW,2013-11-30 11:12:00,
2013-11-30 06:17:00,27.0,18.2,30.69,WSW,248,0.0,0.4,69,0.00,,,0.00,WUHU216HW,2013-11-30 11:17:00,
2013-11-30 06:22:00,27.0,18.5,30.69,WSW,248,0.0,0.7,70,0.00,,,0.00,WUHU216HW,2013-11-30 11:22:00,
2013-11-30 06:27:00,27.0,18.5,30.69,SW,225,0.4,1.1,70,0.00,,,0.00,WUHU216HW,2013-11-30 11:27:00,
2013-11-30 06:32:00,27.0,18.5,30.69,SSW,203,0.4,1.1,70,0.00,,,0.00,WUHU216HW,2013-11-30 11:32:00,
2013-11-30 06:37:00,27.0,18.5,30.69,SSW,203,0.0,0.4,70,0.00,,,0.00,WUHU216HW,2013-11-30 11:37:00,
2013-11-30 06:42:00,27.0,18.5,30.69,SSW,203,0.0,0.0,70,0.00,,,0.00,WUHU216HW,2013-11-30 11:42:00,
2013-11-30 06:47:00,27.0,18.5,30.69,SW,225,0.0,1.1,70,0.00,,,0.00,WUHU216HW,2013-11-30 11:47:00,
2013-11-30 06:52:00,27.0,18.5,30.69,SW,225,0.0,1.6,70,0.00,,,0.00,WUHU216HW,2013-11-30 11:52:00,
2013-11-30 06:57:00,27.2,18.7,30.69,SSW,203,0.0,0.4,70,0.00,,,0.00,WUHU216HW,2013-11-30 11:57:00,
2013-11-30 07:02:00,27.0,18.5,30.69,WSW,248,0.0,0.4,70,0.00,,,0.00,WUHU216HW,2013-11-30 12:02:00,
2013-11-30 07:08:00,27.0,18.5,30.69,South,180,0.0,0.0,70,0.00,,,0.00,WUHU216HW,2013-11-30 12:08:00,
2013-11-30 07:13:00,27.0,18.5,30.69,WSW,248,0.0,0.0,70,0.00,,,0.00,WUHU216HW,2013-11-30 12:13:00,
2013-11-30 07:18:00,26.8,18.4,30.69,WSW,248,0.0,0.0,70,0.00,,,0.00,WUHU216HW,2013-11-30 12:18:00,
2013-11-30 07:23:00,26.8,18.4,30.69,WSW,248,0.0,0.0,70,0.00,,,0.00,WUHU216HW,2013-11-30 12:23:00,
2013-11-30 07:28:00,27.0,18.8,30.69,WSW,248,0.0,0.0,71,0.00,,,0.00,WUHU216HW,2013-11-30 12:28:00,
2013-11-30 07:33:00,27.4,19.2,30.69,WSW,248,0.0,0.0,71,0.00,,,0.00,WUHU216HW,2013-11-30 12:33:00,
2013-11-30 07:38:00,27.4,19.2,30.69,North,0,0.0,0.0,71,0.00,,,0.00,WUHU216HW,2013-11-30 12:38:00,
2013-11-30 07:43:00,27.7,19.5,30.69,North,0,0.0,0.0,71,0.00,,,0.00,WUHU216HW,2013-11-30 12:43:00,
2013-11-30 07:48:00,27.9,19.7,30.69,WSW,248,0.0,0.0,71,0.00,,,0.00,WUHU216HW,2013-11-30 12:48:00,
2013-11-30 07:53:00,28.3,20.1,30.69,WSW,248,0.0,0.0,71,0.00,,,0.00,WUHU216HW,2013-11-30 12:53:00,
2013-11-30 07:58:00,28.4,20.3,30.69,North,0,0.0,0.0,71,0.00,,,0.00,WUHU216HW,2013-11-30 12:58:00,
2013-11-30 08:04:00,28.6,20.4,30.69,North,0,0.0,0.0,71,0.00,,,0.00,WUHU216HW,2013-11-30 13:04:00,
2013-11-30 08:09:00,29.2,20.6,30.69,WSW,248,0.9,0.9,70,0.00,,,0.00,WUHU216HW,2013-11-30 13:09:00,
2013-11-30 08:14:00,29.3,20.8,30.69,SSW,203,1.1,1.1,70,0.00,,,0.00,WUHU216HW,2013-11-30 13:14:00,
2013-11-30 08:19:00,29.5,20.6,30.69,WSW,248,0.9,1.1,69,0.00,,,0.00,WUHU216HW,2013-11-30 13:19:00,
2013-11-30 08:24:00,29.7,20.8,30.69,SW,225,0.0,2.7,69,0.00,,,0.00,WUHU216HW,2013-11-30 13:24:00,
2013-11-30 08:29:00,30.1,21.1,30.69,SSW,203,0.9,2.7,69,0.00,,,0.00,WUHU216HW,2013-11-30 13:29:00,
2013-11-30 08:34:00,30.4,21.4,30.69,WSW,248,1.1,1.1,69,0.00,,,0.00,WUHU216HW,2013-11-30 13:34:00,
2013-11-30 08:39:00,30.6,21.2,30.69,WSW,248,0.4,1.8,68,0.00,,,0.00,WUHU216HW,2013-11-30 13:39:00,
2013-11-30 08:44:00,30.6,20.9,30.69,SW,225,1.6,1.8,67,0.00,,,0.00,WUHU216HW,2013-11-30 13:44:00,
2013-11-30 08:49:00,30.8,21.1,30.69,WSW,248,1.6,2.2,67,0.00,,,0.00,WUHU216HW,2013-11-30 13:49:00,
2013-11-30 08:54:00,31.0,21.2,30.69,WSW,248,0.4,2.2,67,0.00,,,0.00,WUHU216HW,2013-11-30 13:54:00,
2013-11-30 09:00:00,31.1,21.4,30.69,WSW,248,0.4,1.6,67,0.00,,,0.00,WUHU216HW,2013-11-30 14:00:00,
2013-11-30 09:05:00,31.3,21.2,30.69,WSW,248,0.4,3.1,66,0.00,,,0.00,WUHU216HW,2013-11-30 14:05:00,
2013-11-30 09:10:00,31.7,21.6,30.69,West,270,1.3,3.1,66,0.00,,,0.00,WUHU216HW,2013-11-30 14:10:00,
2013-11-30 09:15:00,31.9,21.8,30.69,SE,135,0.4,1.3,66,0.00,,,0.00,WUHU216HW,2013-11-30 14:15:00,
2013-11-30 09:20:00,32.0,21.6,30.69,WSW,248,2.0,3.4,65,0.00,,,0.00,WUHU216HW,2013-11-30 14:20:00,
2013-11-30 09:25:00,32.0,21.6,30.69,SSW,203,1.6,3.4,65,0.00,,,0.00,WUHU216HW,2013-11-30 14:25:00,
2013-11-30 09:30:00,32.2,21.8,30.69,South,180,1.8,2.5,65,0.00,,,0.00,WUHU216HW,2013-11-30 14:30:00,
2013-11-30 09:35:00,32.4,21.6,30.69,West,270,1.3,2.2,64,0.00,,,0.00,WUHU216HW,2013-11-30 14:35:00,
2013-11-30 09:40:00,32.8,21.9,30.69,SSE,158,0.0,2.0,64,0.00,,,0.00,WUHU216HW,2013-11-30 14:40:00,
2013-11-30 09:45:00,33.1,22.2,30.69,WSW,248,0.4,2.0,64,0.00,,,0.00,WUHU216HW,2013-11-30 14:45:00,
2013-11-30 09:50:00,33.3,22.4,30.69,SSW,203,2.0,3.1,64,0.00,,,0.00,WUHU216HW,2013-11-30 14:50:00,
2013-11-30 09:55:00,33.5,22.1,30.68,South,180,1.1,3.1,63,0.00,,,0.00,WUHU216HW,2013-11-30 14:55:00,
2013-11-30 10:01:00,33.5,21.4,30.68,SW,225,1.1,2.2,61,0.00,,,0.00,WUHU216HW,2013-11-30 15:01:00,
2013-11-30 10:06:00,33.5,21.8,30.68,WSW,248,0.9,1.8,62,0.00,,,0.00,WUHU216HW,2013-11-30 15:06:00,
2013-11-30 10:11:00,33.8,22.1,30.67,North,0,0.2,1.8,62,0.00,,,0.00,WUHU216HW,2013-11-30 15:11:00,
2013-11-30 10:16:00,34.0,22.3,30.67,SSW,203,0.7,1.1,62,0.00,,,0.00,WUHU216HW,2013-11-30 15:16:00,
2013-11-30 10:21:00,34.2,22.1,30.67,WSW,248,0.4,1.1,61,0.00,,,0.00,WUHU216HW,2013-11-30 15:21:00,
2013-11-30 10:26:00,34.2,22.1,30.67,SSE,158,0.4,2.5,61,0.00,,,0.00,WUHU216HW,2013-11-30 15:26:00,
2013-11-30 10:31:00,34.7,23.0,30.67,ESE,113,0.2,2.5,62,0.00,,,0.00,WUHU216HW,2013-11-30 15:31:00,
2013-11-30 10:36:00,34.9,23.2,30.67,NNE,23,0.2,1.8,62,0.00,,,0.00,WUHU216HW,2013-11-30 15:36:00,
2013-11-30 10:41:00,35.5,23.4,30.66,West,270,1.3,1.3,61,0.00,,,0.00,WUHU216HW,2013-11-30 15:41:00,
2013-11-30 10:46:00,35.5,22.1,30.66,SW,225,0.9,2.0,58,0.00,,,0.00,WUHU216HW,2013-11-30 15:46:00,
2013-11-30 10:52:00,35.5,22.1,30.66,WSW,248,1.8,2.0,58,0.00,,,0.00,WUHU216HW,2013-11-30 15:52:00,
2013-11-30 10:57:00,35.5,23.0,30.66,ESE,113,0.0,2.0,60,0.00,,,0.00,WUHU216HW,2013-11-30 15:57:00,
2013-11-30 11:02:00,35.6,22.3,30.65,West,270,1.1,2.5,58,0.00,,,0.00,WUHU216HW,2013-11-30 16:02:00,
2013-11-30 11:07:00,36.0,23.1,30.65,WSW,248,1.8,2.5,59,0.00,,,0.00,WUHU216HW,2013-11-30 16:07:00,
2013-11-30 11:12:00,36.4,23.1,30.64,West,270,0.9,1.8,58,0.00,,,0.00,WUHU216HW,2013-11-30 16:12:00,
2013-11-30 11:17:00,36.4,23.4,30.64,SSW,203,0.7,1.8,59,0.00,,,0.00,WUHU216HW,2013-11-30 16:17:00,
2013-11-30 11:22:00,36.5,23.1,30.64,WSW,248,0.0,0.9,58,0.00,,,0.00,WUHU216HW,2013-11-30 16:22:00,
2013-11-30 11:27:00,36.5,22.8,30.64,SW,225,1.8,1.8,57,0.00,,,0.00,WUHU216HW,2013-11-30 16:27:00,
2013-11-30 11:32:00,36.4,21.7,30.63,West,270,1.8,2.5,55,0.00,,,0.00,WUHU216HW,2013-11-30 16:32:00,
2013-11-30 11:37:00,36.5,22.8,30.63,WSW,248,0.4,2.5,57,0.00,,,0.00,WUHU216HW,2013-11-30 16:37:00,
2013-11-30 11:42:00,36.7,22.9,30.62,SSW,203,1.1,1.8,57,0.00,,,0.00,WUHU216HW,2013-11-30 16:42:00,
2013-11-30 11:47:00,36.9,21.8,30.62,West,270,2.7,2.7,54,0.00,,,0.00,WUHU216HW,2013-11-30 16:47:00,
2013-11-30 11:53:00,36.7,22.5,30.62,SSW,203,1.3,2.7,56,0.00,,,0.00,WUHU216HW,2013-11-30 16:53:00,
2013-11-30 11:58:00,36.7,22.5,30.61,SSE,158,0.4,1.3,56,0.00,,,0.00,WUHU216HW,2013-11-30 16:58:00,
2013-11-30 12:03:00,36.9,23.0,30.61,NNE,23,0.0,1.3,57,0.00,,,0.00,WUHU216HW,2013-11-30 17:03:00,
2013-11-30 12:08:00,36.7,22.1,30.61,WSW,248,1.8,2.2,55,0.00,,,0.00,WUHU216HW,2013-11-30 17:08:00,
2013-11-30 12:13:00,36.5,22.3,30.61,WSW,248,1.6,3.4,56,0.00,,,0.00,WUHU216HW,2013-11-30 17:13:00,
2013-11-30 12:18:00,36.7,22.5,30.61,West,270,0.2,3.4,56,0.00,,,0.00,WUHU216HW,2013-11-30 17:18:00,
2013-11-30 12:23:00,36.9,22.6,30.61,SSE,158,1.1,2.5,56,0.00,,,0.00,WUHU216HW,2013-11-30 17:23:00,
2013-11-30 12:28:00,36.9,22.2,30.61,WSW,248,0.2,2.5,55,0.00,,,0.00,WUHU216HW,2013-11-30 17:28:00,
2013-11-30 12:33:00,37.1,22.8,30.60,SSW,203,0.0,1.6,56,0.00,,,0.00,WUHU216HW,2013-11-30 17:33:00,
2013-11-30 12:38:00,37.3,23.0,30.59,SW,225,0.0,0.9,56,0.00,,,0.00,WUHU216HW,2013-11-30 17:38:00,
2013-11-30 12:43:00,37.4,23.1,30.59,WSW,248,0.2,1.6,56,0.00,,,0.00,WUHU216HW,2013-11-30 17:43:00,
2013-11-30 12:48:00,37.8,23.1,30.59,WSW,248,1.3,2.2,55,0.00,,,0.00,WUHU216HW,2013-11-30 17:48:00,
2013-11-30 12:53:00,37.6,22.4,30.59,WSW,248,1.3,2.2,54,0.00,,,0.00,WUHU216HW,2013-11-30 17:53:00,
2013-11-30 12:58:00,37.6,22.9,30.59,SW,225,0.2,1.8,55,0.00,,,0.00,WUHU216HW,2013-11-30 17:58:00,
2013-11-30 13:04:00,38.0,23.6,30.58,West,270,0.9,1.1,56,0.00,,,0.00,WUHU216HW,2013-11-30 18:04:00,
2013-11-30 13:09:00,38.2,23.8,30.58,NNE,23,0.0,0.9,56,0.00,,,0.00,WUHU216HW,2013-11-30 18:09:00,
2013-11-30 13:14:00,38.3,23.0,30.57,WSW,248,0.7,1.1,54,0.00,,,0.00,WUHU216HW,2013-11-30 18:14:00,
2013-11-30 13:19:00,38.5,23.2,30.58,WSW,248,0.9,0.9,54,0.00,,,0.00,WUHU216HW,2013-11-30 18:19:00,
2013-11-30 13:24:00,38.3,23.0,30.57,North,0,0.2,0.9,54,0.00,,,0.00,WUHU216HW,2013-11-30 18:24:00,
2013-11-30 13:29:00,38.3,22.6,30.57,WNW,293,1.3,1.6,53,0.00,,,0.00,WUHU216HW,2013-11-30 18:29:00,
2013-11-30 13:34:00,38.3,22.6,30.57,WNW,293,0.0,1.6,53,0.00,,,0.00,WUHU216HW,2013-11-30 18:34:00,
2013-11-30 13:39:00,38.5,22.3,30.57,WSW,248,0.9,1.3,52,0.00,,,0.00,WUHU216HW,2013-11-30 18:39:00,
2013-11-30 13:44:00,38.3,22.6,30.56,South,180,1.1,1.3,53,0.00,,,0.00,WUHU216HW,2013-11-30 18:44:00,
2013-11-30 13:49:00,38.3,22.6,30.56,ENE,68,0.2,1.1,53,0.00,,,0.00,WUHU216HW,2013-11-30 18:49:00,
2013-11-30 13:54:00,38.5,23.2,30.56,NNE,23,0.0,1.6,54,0.00,,,0.00,WUHU216HW,2013-11-30 18:54:00,
2013-11-30 14:00:00,38.7,22.5,30.56,WSW,248,0.7,1.6,52,0.00,,,0.00,WUHU216HW,2013-11-30 19:00:00,
2013-11-30 14:05:00,38.9,23.1,30.56,West,270,0.4,0.9,53,0.00,,,0.00,WUHU216HW,2013-11-30 19:05:00,
2013-11-30 14:10:00,38.9,23.1,30.55,North,0,0.0,1.1,53,0.00,,,0.00,WUHU216HW,2013-11-30 19:10:00,
2013-11-30 14:15:00,38.9,23.1,30.55,South,180,1.1,1.1,53,0.00,,,0.00,WUHU216HW,2013-11-30 19:15:00,
2013-11-30 14:20:00,38.5,22.8,30.55,SSW,203,0.0,1.1,53,0.00,,,0.00,WUHU216HW,2013-11-30 19:20:00,
2013-11-30 14:25:00,38.7,23.4,30.54,South,180,0.0,0.7,54,0.00,,,0.00,WUHU216HW,2013-11-30 19:25:00,
2013-11-30 14:30:00,39.1,23.7,30.54,South,180,0.0,0.0,54,0.00,,,0.00,WUHU216HW,2013-11-30 19:30:00,
2013-11-30 14:35:00,39.2,23.9,30.53,SW,225,1.1,1.1,54,0.00,,,0.00,WUHU216HW,2013-11-30 19:35:00,
2013-11-30 14:40:00,39.2,23.4,30.53,WSW,248,1.3,1.3,53,0.00,,,0.00,WUHU216HW,2013-11-30 19:40:00,
2013-11-30 14:45:00,38.9,22.7,30.53,West,270,0.9,1.3,52,0.00,,,0.00,WUHU216HW,2013-11-30 19:45:00,
2013-11-30 14:50:00,38.5,22.3,30.53,NE,45,0.0,1.3,52,0.00,,,0.00,WUHU216HW,2013-11-30 19:50:00,
2013-11-30 14:56:00,38.5,22.8,30.53,NE,45,0.0,1.3,53,0.00,,,0.00,WUHU216HW,2013-11-30 19:56:00,
2013-11-30 15:01:00,38.7,23.4,30.52,NE,45,0.0,0.4,54,0.00,,,0.00,WUHU216HW,2013-11-30 20:01:00,
2013-11-30 15:06:00,38.9,23.6,30.52,NE,45,0.0,1.1,54,0.00,,,0.00,WUHU216HW,2013-11-30 20:06:00,
2013-11-30 15:11:00,38.9,23.6,30.52,WSW,248,0.0,1.1,54,0.00,,,0.00,WUHU216HW,2013-11-30 20:11:00,
2013-11-30 15:16:00,38.9,23.6,30.52,WSW,248,0.0,0.4,54,0.00,,,0.00,WUHU216HW,2013-11-30 20:16:00,
2013-11-30 15:21:00,38.9,23.6,30.51,West,270,0.0,1.1,54,0.00,,,0.00,WUHU216HW,2013-11-30 20:21:00,
2013-11-30 15:26:00,38.7,22.5,30.51,WSW,248,1.1,1.1,52,0.00,,,0.00,WUHU216HW,2013-11-30 20:26:00,
2013-11-30 15:31:00,38.5,22.8,30.51,West,270,0.7,1.3,53,0.00,,,0.00,WUHU216HW,2013-11-30 20:31:00,
2013-11-30 15:36:00,38.5,23.2,30.51,West,270,0.0,1.3,54,0.00,,,0.00,WUHU216HW,2013-11-30 20:36:00,
2013-11-30 15:41:00,38.7,23.4,30.50,WSW,248,1.3,1.3,54,0.00,,,0.00,WUHU216HW,2013-11-30 20:41:00,
2013-11-30 15:46:00,38.5,23.2,30.50,WSW,248,0.0,1.3,54,0.00,,,0.00,WUHU216HW,2013-11-30 20:46:00,
2013-11-30 15:51:00,38.5,23.2,30.50,WSW,248,0.4,0.4,54,0.00,,,0.00,WUHU216HW,2013-11-30 20:51:00,
2013-11-30 15:57:00,38.3,23.0,30.50,WSW,248,0.0,0.7,54,0.00,,,0.00,WUHU216HW,2013-11-30 20:57:00,
2013-11-30 16:02:00,38.3,23.5,30.50,WSW,248,0.0,0.7,55,0.00,,,0.00,WUHU216HW,2013-11-30 21:02:00,
2013-11-30 16:07:00,38.2,23.3,30.49,WSW,248,0.0,0.4,55,0.00,,,0.00,WUHU216HW,2013-11-30 21:07:00,
2013-11-30 16:12:00,38.0,23.1,30.49,North,0,0.0,0.9,55,0.00,,,0.00,WUHU216HW,2013-11-30 21:12:00,
2013-11-30 16:17:00,37.8,23.4,30.49,NNW,338,0.0,0.9,56,0.00,,,0.00,WUHU216HW,2013-11-30 21:17:00,
2013-11-30 16:22:00,37.8,23.4,30.49,NNW,338,0.0,0.4,56,0.00,,,0.00,WUHU216HW,2013-11-30 21:22:00,
2013-11-30 16:27:00,37.8,23.4,30.49,West,270,1.1,1.1,56,0.00,,,0.00,WUHU216HW,2013-11-30 21:27:00,
2013-11-30 16:32:00,37.8,23.4,30.49,West,270,0.0,1.1,56,0.00,,,0.00,WUHU216HW,2013-11-30 21:32:00,
2013-11-30 16:37:00,37.4,23.1,30.49,West,270,0.0,0.4,56,0.00,,,0.00,WUHU216HW,2013-11-30 21:37:00,
2013-11-30 16:42:00,37.3,23.0,30.49,West,270,0.0,0.0,56,0.00,,,0.00,WUHU216HW,2013-11-30 21:42:00,
2013-11-30 16:48:00,37.1,22.8,30.48,West,270,0.0,0.0,56,0.00,,,0.00,WUHU216HW,2013-11-30 21:48:00,
2013-11-30 16:53:00,37.1,23.2,30.49,West,270,0.0,0.0,57,0.00,,,0.00,WUHU216HW,2013-11-30 21:53:00,
2013-11-30 16:58:00,36.7,22.9,30.48,West,270,0.0,0.0,57,0.00,,,0.00,WUHU216HW,2013-11-30 21:58:00,
2013-11-30 17:03:00,36.5,22.8,30.48,West,270,0.0,0.0,57,0.00,,,0.00,WUHU216HW,2013-11-30 22:03:00,
2013-11-30 17:08:00,36.4,22.6,30.48,West,270,0.0,0.0,57,0.00,,,0.00,WUHU216HW,2013-11-30 22:08:00,
2013-11-30 17:13:00,36.4,23.1,30.48,West,270,0.0,0.0,58,0.00,,,0.00,WUHU216HW,2013-11-30 22:13:00,
2013-11-30 17:18:00,36.4,23.1,30.48,West,270,0.0,0.0,58,0.00,,,0.00,WUHU216HW,2013-11-30 22:18:00,
2013-11-30 17:23:00,36.2,22.9,30.48,West,270,0.0,0.0,58,0.00,,,0.00,WUHU216HW,2013-11-30 22:23:00,
2013-11-30 17:28:00,36.0,23.1,30.47,West,270,0.0,0.0,59,0.00,,,0.00,WUHU216HW,2013-11-30 22:28:00,
2013-11-30 17:33:00,36.0,23.1,30.47,West,270,0.0,0.0,59,0.00,,,0.00,WUHU216HW,2013-11-30 22:33:00,
2013-11-30 17:38:00,35.6,22.8,30.47,West,270,0.0,0.0,59,0.00,,,0.00,WUHU216HW,2013-11-30 22:38:00,
2013-11-30 17:44:00,35.6,22.8,30.47,West,270,0.0,0.0,59,0.00,,,0.00,WUHU216HW,2013-11-30 22:44:00,
2013-11-30 17:49:00,35.6,23.2,30.47,West,270,0.0,0.0,60,0.00,,,0.00,WUHU216HW,2013-11-30 22:49:00,
2013-11-30 17:54:00,35.5,23.0,30.47,West,270,0.0,0.0,60,0.00,,,0.00,WUHU216HW,2013-11-30 22:54:00,
2013-11-30 17:59:00,35.3,22.9,30.47,West,270,0.0,0.0,60,0.00,,,0.00,WUHU216HW,2013-11-30 22:59:00,
2013-11-30 18:04:00,35.5,23.0,30.46,West,270,0.0,0.0,60,0.00,,,0.00,WUHU216HW,2013-11-30 23:04:00,
2013-11-30 18:09:00,35.6,23.2,30.47,West,270,0.0,0.0,60,0.00,,,0.00,WUHU216HW,2013-11-30 23:09:00,
2013-11-30 18:14:00,35.6,23.2,30.47,North,0,0.0,0.0,60,0.00,,,0.00,WUHU216HW,2013-11-30 23:14:00,
2013-11-30 18:19:00,35.6,23.2,30.46,North,0,0.0,0.0,60,0.00,,,0.00,WUHU216HW,2013-11-30 23:19:00,
2013-11-30 18:24:00,35.6,23.2,30.46,North,0,0.0,0.0,60,0.00,,,0.00,WUHU216HW,2013-11-30 23:24:00,
2013-11-30 18:29:00,35.6,23.2,30.46,North,0,0.0,0.0,60,0.00,,,0.00,WUHU216HW,2013-11-30 23:29:00,
2013-11-30 18:34:00,35.6,23.2,30.46,North,0,0.0,0.0,60,0.00,,,0.00,WUHU216HW,2013-11-30 23:34:00,
2013-11-30 18:40:00,35.5,23.0,30.46,North,0,0.0,0.0,60,0.00,,,0.00,WUHU216HW,2013-11-30 23:40:00,
2013-11-30 18:45:00,35.3,22.9,30.46,North,0,0.0,0.0,60,0.00,,,0.00,WUHU216HW,2013-11-30 23:45:00,
2013-11-30 18:50:00,35.3,23.2,30.46,North,0,0.0,0.0,61,0.00,,,0.00,WUHU216HW,2013-11-30 23:50:00,
2013-11-30 18:55:00,35.3,23.2,30.46,North,0,0.0,0.0,61,0.00,,,0.00,WUHU216HW,2013-11-30 23:55:00,
2013-11-30 19:00:00,35.1,23.0,30.46,North,0,0.0,0.0,61,0.00,,,0.00,WUHU216HW,2013-12-01 00:00:00,
2013-11-30 19:05:00,35.3,23.2,30.45,North,0,0.0,0.0,61,0.00,,,0.00,WUHU216HW,2013-12-01 00:05:00,
2013-11-30 19:10:00,35.5,23.8,30.45,North,0,0.0,0.0,62,0.00,,,0.00,WUHU216HW,2013-12-01 00:10:00,
2013-11-30 19:15:00,35.5,23.8,30.45,North,0,0.0,0.0,62,0.00,,,0.00,WUHU216HW,2013-12-01 00:15:00,
2013-11-30 19:20:00,35.5,23.8,30.44,North,0,0.0,0.0,62,0.00,,,0.00,WUHU216HW,2013-12-01 00:20:00,
2013-11-30 19:25:00,35.6,23.9,30.44,North,0,0.0,0.0,62,0.00,,,0.00,WUHU216HW,2013-12-01 00:25:00,
2013-11-30 19:30:00,35.5,23.8,30.44,North,0,0.0,0.0,62,0.00,,,0.00,WUHU216HW,2013-12-01 00:30:00,
2013-11-30 19:35:00,35.6,23.9,30.44,North,0,0.0,0.0,62,0.00,,,0.00,WUHU216HW,2013-12-01 00:35:00,
2013-11-30 19:41:00,35.6,23.9,30.44,NW,315,0.0,0.0,62,0.00,,,0.00,WUHU216HW,2013-12-01 00:41:00,
2013-11-30 19:46:00,35.6,23.9,30.44,WNW,293,0.0,0.0,62,0.00,,,0.00,WUHU216HW,2013-12-01 00:46:00,
2013-11-30 19:51:00,35.5,23.8,30.43,WNW,293,0.0,0.0,62,0.00,,,0.00,WUHU216HW,2013-12-01 00:51:00,
2013-11-30 19:56:00,35.1,23.4,30.43,North,0,0.0,0.0,62,0.00,,,0.00,WUHU216HW,2013-12-01 00:56:00,
2013-11-30 20:01:00,34.9,23.2,30.43,North,0,0.0,0.0,62,0.00,,,0.00,WUHU216HW,2013-12-01 01:01:00,
2013-11-30 20:06:00,34.7,23.0,30.43,North,0,0.0,0.0,62,0.00,,,0.00,WUHU216HW,2013-12-01 01:06:00,
2013-11-30 20:11:00,34.6,22.9,30.43,North,0,0.0,0.0,62,0.00,,,0.00,WUHU216HW,2013-12-01 01:11:00,
2013-11-30 20:16:00,34.2,22.5,30.43,North,0,0.0,0.0,62,0.00,,,0.00,WUHU216HW,2013-12-01 01:16:00,
2013-11-30 20:21:00,34.0,22.3,30.43,North,0,0.0,0.0,62,0.00,,,0.00,WUHU216HW,2013-12-01 01:21:00,
2013-11-30 20:26:00,34.0,22.7,30.43,North,0,0.0,0.0,63,0.00,,,0.00,WUHU216HW,2013-12-01 01:26:00,
2013-11-30 20:31:00,34.0,22.7,30.43,North,0,0.0,0.0,63,0.00,,,0.00,WUHU216HW,2013-12-01 01:31:00,
2013-11-30 20:37:00,34.0,22.7,30.42,North,0,0.0,0.0,63,0.00,,,0.00,WUHU216HW,2013-12-01 01:37:00,
2013-11-30 20:42:00,34.0,23.0,30.42,North,0,0.0,0.0,64,0.00,,,0.00,WUHU216HW,2013-12-01 01:42:00,
2013-11-30 20:43:00,34.0,23.0,30.42,North,0,0.0,0.0,64,0.00,,,0.00,WUHU216HW,2013-12-01 01:43:00,
2013-11-30 20:48:00,34.2,23.2,30.42,North,0,0.0,0.0,64,0.00,,,0.00,WUHU216HW,2013-12-01 01:48:00,
2013-11-30 20:53:00,34.0,23.0,30.42,North,0,0.0,0.0,64,0.00,,,0.00,WUHU216HW,2013-12-01 01:53:00,
2013-11-30 20:58:00,34.2,23.6,30.42,North,0,0.0,0.0,65,0.00,,,0.00,WUHU216HW,2013-12-01 01:58:00,
2013-11-30 21:03:00,34.0,23.4,30.42,North,0,0.0,0.0,65,0.00,,,0.00,WUHU216HW,2013-12-01 02:03:00,
2013-11-30 21:08:00,34.0,23.4,30.41,North,0,0.0,0.0,65,0.00,,,0.00,WUHU216HW,2013-12-01 02:08:00,
2013-11-30 21:14:00,34.0,23.4,30.41,North,0,0.0,0.0,65,0.00,,,0.00,WUHU216HW,2013-12-01 02:14:00,
2013-11-30 21:19:00,34.0,23.4,30.41,North,0,0.0,0.0,65,0.00,,,0.00,WUHU216HW,2013-12-01 02:19:00,
2013-11-30 21:24:00,34.2,23.6,30.41,North,0,0.0,0.0,65,0.00,,,0.00,WUHU216HW,2013-12-01 02:24:00,
2013-11-30 21:29:00,34.2,23.6,30.41,North,0,0.0,0.0,65,0.00,,,0.00,WUHU216HW,2013-12-01 02:29:00,
2013-11-30 21:34:00,34.2,23.6,30.41,North,0,0.0,0.0,65,0.00,,,0.00,WUHU216HW,2013-12-01 02:34:00,
2013-11-30 21:39:00,34.2,23.6,30.41,North,0,0.0,0.0,65,0.00,,,0.00,WUHU216HW,2013-12-01 02:39:00,
2013-11-30 21:44:00,34.2,23.9,30.40,North,0,0.0,0.0,66,0.00,,,0.00,WUHU216HW,2013-12-01 02:44:00,
2013-11-30 21:49:00,34.2,23.9,30.40,North,0,0.0,0.0,66,0.00,,,0.00,WUHU216HW,2013-12-01 02:49:00,
2013-11-30 21:54:00,34.4,24.1,30.40,North,0,0.0,0.0,66,0.00,,,0.00,WUHU216HW,2013-12-01 02:54:00,
2013-11-30 21:59:00,34.4,24.1,30.40,North,0,0.0,0.0,66,0.00,,,0.00,WUHU216HW,2013-12-01 02:59:00,
2013-11-30 22:05:00,34.6,24.7,30.40,North,0,0.0,0.0,67,0.00,,,0.00,WUHU216HW,2013-12-01 03:05:00,
2013-11-30 22:10:00,34.6,24.7,30.40,North,0,0.0,0.0,67,0.00,,,0.00,WUHU216HW,2013-12-01 03:10:00,
2013-11-30 22:15:00,34.7,24.8,30.40,North,0,0.0,0.0,67,0.00,,,0.00,WUHU216HW,2013-12-01 03:15:00,
2013-11-30 22:20:00,34.9,25.0,30.39,North,0,0.0,0.0,67,0.00,,,0.00,WUHU216HW,2013-12-01 03:20:00,
2013-11-30 22:25:00,34.9,25.0,30.39,North,0,0.0,0.0,67,0.00,,,0.00,WUHU216HW,2013-12-01 03:25:00,
2013-11-30 22:30:00,34.9,25.0,30.39,North,0,0.0,0.0,67,0.00,,,0.00,WUHU216HW,2013-12-01 03:30:00,
2013-11-30 22:35:00,34.9,25.0,30.39,North,0,0.0,0.0,67,0.00,,,0.00,WUHU216HW,2013-12-01 03:35:00,
2013-11-30 22:40:00,34.9,25.0,30.38,North,0,0.0,0.0,67,0.00,,,0.00,WUHU216HW,2013-12-01 03:40:00,
2013-11-30 22:45:00,34.9,25.0,30.38,North,0,0.0,0.0,67,0.00,,,0.00,WUHU216HW,2013-12-01 03:45:00,
2013-11-30 22:50:00,34.7,24.8,30.38,North,0,0.0,0.0,67,0.00,,,0.00,WUHU216HW,2013-12-01 03:50:00,
2013-11-30 22:55:00,34.6,24.7,30.38,North,0,0.0,0.0,67,0.00,,,0.00,WUHU216HW,2013-12-01 03:55:00,
2013-11-30 23:01:00,34.4,24.5,30.38,North,0,0.0,0.0,67,0.00,,,0.00,WUHU216HW,2013-12-01 04:01:00,
2013-11-30 23:06:00,34.2,24.3,30.38,North,0,0.0,0.0,67,0.00,,,0.00,WUHU216HW,2013-12-01 04:06:00,
2013-11-30 23:11:00,34.2,24.3,30.37,North,0,0.0,0.0,67,0.00,,,0.00,WUHU216HW,2013-12-01 04:11:00,
2013-11-30 23:16:00,34.2,24.3,30.37,North,0,0.0,0.0,67,0.00,,,0.00,WUHU216HW,2013-12-01 04:16:00,
2013-11-30 23:21:00,34.2,24.7,30.37,North,0,0.0,0.0,68,0.00,,,0.00,WUHU216HW,2013-12-01 04:21:00,
2013-11-30 23:26:00,34.2,24.7,30.36,North,0,0.0,0.0,68,0.00,,,0.00,WUHU216HW,2013-12-01 04:26:00,
2013-11-30 23:31:00,33.8,24.3,30.36,North,0,0.0,0.0,68,0.00,,,0.00,WUHU216HW,2013-12-01 04:31:00,
2013-11-30 23:36:00,33.7,24.1,30.36,North,0,0.0,0.0,68,0.00,,,0.00,WUHU216HW,2013-12-01 04:36:00,
2013-11-30 23:41:00,33.5,23.9,30.36,North,0,0.0,0.0,68,0.00,,,0.00,WUHU216HW,2013-12-01 04:41:00,
2013-11-30 23:46:00,33.1,24.0,30.36,North,0,0.0,0.0,69,0.00,,,0.00,WUHU216HW,2013-12-01 04:46:00,
2013-11-30 23:51:00,32.9,23.9,30.36,North,0,0.0,0.0,69,0.00,,,0.00,WUHU216HW,2013-12-01 04:51:00,
2013-11-30 23:57:00,32.8,23.7,30.35,North,0,0.0,0.0,69,0.00,,,0.00,WUHU216HW,2013-12-01 04:57:00,